This is the latest recevied weather packets stored in our database for station/object OK1TOM-6. If no packets are shown the sender has not sent any weather packets the latest 10 day(s).
| Time | Temp. | Humidity | Pressure | Rain* | Wind** | Luminosity | Snow |
|---|---|---|---|---|---|---|---|
| 1777464967 | 11.67° C | 34% | 1027 hPa | 0 mm | - | - | - |
| 1777464364 | 11.67° C | 33% | 1027 hPa | 0 mm | - | - | - |
| 1777463760 | 11.67° C | 33% | 1026.9 hPa | 0 mm | - | - | - |
| 1777463157 | 11.67° C | 31% | 1027 hPa | 0 mm | - | - | - |
| 1777462554 | 11.11° C | 32% | 1027.1 hPa | 0 mm | - | - | - |
| 1777461950 | 11.11° C | 37% | 1027.1 hPa | 0 mm | - | - | - |
| 1777461347 | 11.11° C | 34% | 1027.2 hPa | 0 mm | - | - | - |
| 1777460743 | 11.67° C | 35% | 1027.2 hPa | 0 mm | - | - | - |
| 1777460140 | 11.11° C | 32% | 1027.3 hPa | 0 mm | - | - | - |
| 1777459537 | 11.67° C | 34% | 1027.2 hPa | 0 mm | - | - | - |
| 1777458933 | 11.67° C | 34% | 1027.4 hPa | 0 mm | - | - | - |
| 1777458330 | 11.11° C | 35% | 1027.2 hPa | 0 mm | - | - | - |
| 1777457726 | 10.56° C | 34% | 1027.3 hPa | 0 mm | - | - | - |
| 1777457123 | 10.56° C | 36% | 1027.3 hPa | 0 mm | - | - | - |
| 1777456519 | 10.56° C | 35% | 1027.4 hPa | 0 mm | - | - | - |
| 1777455916 | 10.56° C | 34% | 1027.3 hPa | 0 mm | - | - | - |
| 1777455373 | 10° C | 35% | 1027.3 hPa | 0 mm | - | - | - |
| 1777454769 | 10° C | 34% | 1027.2 hPa | 0 mm | - | - | - |
| 1777454166 | 10° C | 37% | 1027.3 hPa | 0 mm | - | - | - |
| 1777453562 | 10° C | 37% | 1027.5 hPa | 0 mm | - | - | - |
| 1777452959 | 9.44° C | 37% | 1027.3 hPa | 0 mm | - | - | - |
| 1777452356 | 9.44° C | 36% | 1027.4 hPa | 0 mm | - | - | - |
| 1777451752 | 9.44° C | 38% | 1027.2 hPa | 0 mm | - | - | - |
| 1777451149 | 8.89° C | 36% | 1027.3 hPa | 0 mm | - | - | - |
| 1777450545 | 8.89° C | 37% | 1027.2 hPa | 0 mm | - | - | - |
* Rain latest hour (hover to see other rain measurements)
** Current wind speed in m/s (hover to see current wind gust speed)